| time (UTC) | temp F | wind direction | speed MPH | gust MPH | rain 1hr in | rain 24hr in | rain mn in | humidity % | barometer mb |
| 20260902184109 | 60 | 0.0 | 0.0 | 0.00 | 0.01 | 0.01 | 88 | 1026.5 | |
| 20260902182520 | 61 | 0.0 | 0.0 | 0.00 | 0.01 | 0.01 | 87 | 1026.5 | |
| 20260902181608 | 62 | 0.0 | 0.0 | 0.00 | 0.01 | 0.01 | 86 | 1026.3 | |
| 20260902180556 | 62 | 0.0 | 0.0 | 0.00 | 0.01 | 0.01 | 86 | 1026.1 | |
| 20260902175609 | 63 | 0.0 | 0.0 | 0.00 | 0.01 | 0.01 | 85 | 1026.0 | |
| 20260902174101 | 63 | 0.0 | 0.0 | 0.00 | 0.01 | 0.01 | 84 | 1026.0 | |
| 20260902173020 | 64 | 0.0 | 0.0 | 0.01 | 0.01 | 0.01 | 82 | 1025.9 | |
| 20260902172109 | 64 | 0.0 | 0.0 | 0.01 | 0.01 | 0.01 | 83 | 1025.9 | |
| 20260902170555 | 64 | 0.0 | 0.0 | 0.01 | 0.01 | 0.01 | 82 | 1026.0 | |
| 20260902165543 | 64 | 0.0 | 0.0 | 0.01 | 0.01 | 0.01 | 82 | 1025.8 | |
| 20260902164530 | 65 | 0 | 0.0 | 2.0 | 0.01 | 0.01 | 0.01 | 81 | 1025.9 |
| 20260902163520 | 67 | 16 | 1.0 | 2.0 | 0.01 | 0.01 | 0.01 | 75 | 1025.9 |
| 20260902162108 | 71 | 311 | 2.0 | 11.0 | 0.00 | 0.00 | 0.00 | 61 | 1025.8 |
| 20260902160555 | 72 | 315 | 0.0 | 2.0 | 0.00 | 0.00 | 0.00 | 58 | 1025.4 |
| 20260902155608 | 73 | 270 | 0.0 | 2.0 | 0.00 | 0.00 | 0.00 | 55 | 1025.3 |
| 20260902154109 | 74 | 292 | 1.0 | 6.0 | 0.00 | 0.00 | 0.00 | 54 | 1025.4 |
| 20260902152530 | 75 | 274 | 1.0 | 2.0 | 0.00 | 0.00 | 0.00 | 53 | 1025.5 |
| 20260902151521 | 74 | 11 | 1.0 | 2.0 | 0.00 | 0.00 | 0.00 | 53 | 1025.6 |
| 20260902150032 | 75 | 120 | 2.0 | 4.0 | 0.00 | 0.00 | 0.00 | 53 | 1025.7 |
| 20260902145020 | 75 | 131 | 0.0 | 2.0 | 0.00 | 0.00 | 0.00 | 54 | 1025.8 |
| 20260902144110 | 74 | 200 | 1.0 | 2.0 | 0.00 | 0.00 | 0.00 | 53 | 1025.9 |
| 20260902142555 | 74 | 277 | 1.0 | 4.0 | 0.00 | 0.00 | 0.00 | 54 | 1026.0 |
| 20260902141521 | 76 | 342 | 1.0 | 4.0 | 0.00 | 0.00 | 0.00 | 52 | 1026.0 |
| 20260902140109 | 75 | 109 | 1.0 | 4.0 | 0.00 | 0.00 | 0.00 | 53 | 1026.0 |
| 20260902134556 | 74 | 90 | 0.0 | 2.0 | 0.00 | 0.00 | 0.00 | 55 | 1026.2 |
| 20260902133558 | 77 | 96 | 1.0 | 4.0 | 0.00 | 0.00 | 0.00 | 52 | 1026.1 |
| 20260902132543 | 78 | 315 | 2.0 | 2.0 | 0.00 | 0.00 | 0.00 | 51 | 1026.3 |
| 20260902131520 | 76 | 247 | 3.0 | 11.0 | 0.00 | 0.00 | 0.00 | 53 | 1026.4 |
| 20260902130056 | 77 | 104 | 3.0 | 8.0 | 0.00 | 0.00 | 0.00 | 52 | 1026.5 |
| 20260902124608 | 76 | 184 | 2.0 | 4.0 | 0.00 | 0.00 | 0.00 | 52 | 1026.6 |
| 20260902123557 | 75 | 307 | 3.0 | 7.0 | 0.00 | 0.00 | 0.00 | 54 | 1026.6 |
| 20260902122544 | 74 | 135 | 3.0 | 7.0 | 0.00 | 0.00 | 0.00 | 54 | 1026.9 |
| 20260902121520 | 73 | 68 | 0.0 | 2.0 | 0.00 | 0.00 | 0.00 | 56 | 1026.8 |
| 20260902120607 | 74 | 23 | 1.0 | 2.0 | 0.00 | 0.00 | 0.00 | 56 | 1027.0 |
| 20260902115520 | 72 | 290 | 1.0 | 4.0 | 0.00 | 0.00 | 0.00 | 57 | 1026.9 |
| 20260902114607 | 72 | 240 | 2.0 | 6.0 | 0.00 | 0.00 | 0.00 | 56 | 1027.1 |
| 20260902113520 | 72 | 88 | 1.0 | 4.0 | 0.00 | 0.00 | 0.00 | 54 | 1027.2 |
| 20260902112044 | 71 | 308 | 1.0 | 4.0 | 0.00 | 0.00 | 0.00 | 56 | 1027.4 |
| 20260902111032 | 71 | 111 | 1.0 | 4.0 | 0.00 | 0.00 | 0.00 | 57 | 1027.5 |
| 20260902105609 | 71 | 0.0 | 0.0 | 0.00 | 0.00 | 0.00 | 57 | 1027.4 | |
| 20260902104110 | 71 | 94 | 1.0 | 4.0 | 0.00 | 0.00 | 0.00 | 59 | 1027.6 |
| 20260902102530 | 70 | 114 | 2.0 | 4.0 | 0.00 | 0.00 | 0.00 | 60 | 1027.6 |
| 20260902101521 | 71 | 167 | 1.0 | 4.0 | 0.00 | 0.00 | 0.00 | 61 | 1027.8 |
| 20260902100110 | 71 | 261 | 2.0 | 6.0 | 0.00 | 0.00 | 0.00 | 60 | 1027.8 |
| 20260902094607 | 71 | 348 | 2.0 | 4.0 | 0.00 | 0.00 | 0.00 | 62 | 1027.8 |
| 20260902093521 | 70 | 82 | 2.0 | 6.0 | 0.00 | 0.00 | 0.00 | 65 | 1028.0 |
| 20260902092107 | 70 | 135 | 2.0 | 6.0 | 0.00 | 0.00 | 0.00 | 64 | 1028.1 |
| 20260902091034 | 69 | 134 | 2.0 | 8.0 | 0.00 | 0.00 | 0.00 | 68 | 1028.1 |
| 20260902085543 | 68 | 131 | 1.0 | 4.0 | 0.00 | 0.00 | 0.00 | 72 | 1028.1 |
| 20260902084531 | 66 | 180 | 0.0 | 2.0 | 0.00 | 0.00 | 0.00 | 73 | 1028.2 |
| 20260902083518 | 66 | 113 | 1.0 | 4.0 | 0.00 | 0.00 | 0.00 | 74 | 1028.0 |
| 20260902082607 | 66 | 225 | 1.0 | 2.0 | 0.00 | 0.00 | 0.00 | 73 | 1028.1 |
| 20260902081521 | 64 | 113 | 1.0 | 4.0 | 0.00 | 0.00 | 0.00 | 77 | 1028.1 |
| 20260902080108 | 64 | 120 | 1.0 | 4.0 | 0.00 | 0.00 | 0.00 | 78 | 1028.1 |
| 20260902074607 | 64 | 119 | 1.0 | 4.0 | 0.00 | 0.00 | 0.00 | 77 | 1028.1 |
| 20260902073521 | 63 | 118 | 2.0 | 4.0 | 0.00 | 0.00 | 0.00 | 79 | 1028.1 |
| 20260902072033 | 63 | 135 | 0.0 | 2.0 | 0.00 | 0.00 | 0.00 | 78 | 1028.1 |
| 20260902071021 | 64 | 113 | 0.0 | 4.0 | 0.00 | 0.00 | 0.00 | 77 | 1028.0 |
| 20260902070110 | 62 | 158 | 0.0 | 2.0 | 0.00 | 0.00 | 0.00 | 79 | 1027.9 |
| 20260902064609 | 63 | 193 | 1.0 | 2.0 | 0.00 | 0.00 | 0.00 | 79 | 1028.0 |
| 20260902063521 | 61 | 0.0 | 2.0 | 0.00 | 0.00 | 0.00 | 83 | 1028.0 | |
| 20260902062032 | 59 | 0.0 | 2.0 | 0.00 | 0.00 | 0.00 | 86 | 1028.0 | |
| 20260902061019 | 57 | 158 | 0.0 | 2.0 | 0.00 | 0.00 | 0.00 | 90 | 1027.9 |
| 20260902060108 | 56 | 135 | 0.0 | 2.0 | 0.00 | 0.00 | 0.00 | 92 | 1028.1 |
| 20260902054609 | 56 | 0.0 | 0.0 | 0.00 | 0.00 | 0.00 | 94 | 1028.2 | |
| 20260902053520 | 55 | 0.0 | 0.0 | 0.00 | 0.00 | 0.00 | 94 | 1028.1 | |
| 20260902052108 | 53 | 0.0 | 0.0 | 0.00 | 0.00 | 0.00 | 94 | 1028.0 | |
| 20260902051033 | 52 | 0.0 | 0.0 | 0.00 | 0.00 | 0.00 | 94 | 1027.9 | |
| 20260902045609 | 51 | 0.0 | 0.0 | 0.00 | 0.00 | 0.00 | 94 | 1027.9 | |
| 20260902044045 | 51 | 0.0 | 0.0 | 0.00 | 0.00 | 0.00 | 94 | 1027.9 | |
| 20260902043030 | 51 | 0.0 | 0.0 | 0.00 | 0.00 | 0.00 | 93 | 1027.9 | |
| 20260902042113 | 51 | 0.0 | 0.0 | 0.00 | 0.00 | 0.00 | 93 | 1028.0 | |
| 20260902041032 | 51 | 0.0 | 0.0 | 0.00 | 0.00 | 0.00 | 93 | 1028.1 | |
| 20260902035609 | 52 | 0.0 | 0.0 | 0.00 | 0.00 | 0.00 | 93 | 1027.8 | |
| 20260902034109 | 52 | 0.0 | 0.0 | 0.00 | 0.00 | 0.00 | 93 | 1027.9 | |
| 20260902032607 | 53 | 0.0 | 0.0 | 0.00 | 0.00 | 0.00 | 93 | 1027.7 | |
| 20260902031520 | 54 | 0.0 | 0.0 | 0.00 | 0.00 | 0.00 | 93 | 1027.8 | |
| 20260902030107 | 54 | 0.0 | 0.0 | 0.00 | 0.00 | 0.00 | 93 | 1027.7 | |
| 20260902025020 | 54 | 0.0 | 0.0 | 0.00 | 0.00 | 0.00 | 93 | 1027.5 | |
| 20260902024107 | 54 | 0.0 | 0.0 | 0.00 | 0.00 | 0.00 | 93 | 1027.6 | |
| 20260902023019 | 54 | 0.0 | 0.0 | 0.00 | 0.00 | 0.00 | 93 | 1027.5 | |
| 20260902021523 | 54 | 0.0 | 0.0 | 0.00 | 0.00 | 0.00 | 92 | 1027.6 | |
| 20260902020054 | 55 | 0.0 | 0.0 | 0.00 | 0.00 | 0.00 | 92 | 1027.7 | |
| 20260902015019 | 55 | 0.0 | 0.0 | 0.00 | 0.00 | 0.00 | 91 | 1027.6 | |
| 20260902013520 | 55 | 0.0 | 0.0 | 0.00 | 0.00 | 0.00 | 91 | 1027.7 | |
| 20260902012043 | 56 | 0.0 | 0.0 | 0.00 | 0.00 | 0.00 | 90 | 1027.8 | |
| 20260902011031 | 57 | 248 | 0.0 | 2.0 | 0.00 | 0.00 | 0.00 | 91 | 1027.8 |
| 20260902005612 | 56 | 281 | 0.0 | 2.0 | 0.00 | 0.00 | 0.00 | 91 | 1027.9 |
| 20260902004043 | 56 | 0.0 | 0.0 | 0.00 | 0.00 | 0.00 | 92 | 1027.9 | |
| 20260902003031 | 56 | 0.0 | 0.0 | 0.00 | 0.00 | 0.00 | 92 | 1027.9 | |
| 20260902002019 | 56 | 0.0 | 0.0 | 0.00 | 0.00 | 0.00 | 92 | 1027.8 | |
| 20260902001110 | 56 | 0.0 | 0.0 | 0.00 | 0.00 | 0.00 | 92 | 1027.9 | |
| 20260902000056 | 56 | 0.0 | 0.0 | 0.00 | 0.00 | 0.00 | 92 | 1027.7 | |
| 20260901234532 | 57 | 0.0 | 0.0 | 0.00 | 0.00 | 0.00 | 91 | 1027.8 | |
| 20260901233520 | 57 | 0.0 | 0.0 | 0.00 | 0.00 | 0.00 | 91 | 1027.5 | |
| 20260901232109 | 57 | 0.0 | 0.0 | 0.00 | 0.00 | 0.00 | 91 | 1027.4 | |
| 20260901231031 | 58 | 0.0 | 0.0 | 0.00 | 0.00 | 0.00 | 90 | 1027.7 | |
| 20260901225608 | 58 | 0.0 | 0.0 | 0.00 | 0.00 | 0.00 | 89 | 1027.7 | |
| 20260901224109 | 59 | 0.0 | 0.0 | 0.00 | 0.00 | 0.00 | 88 | 1027.6 | |
| 20260901222531 | 60 | 0.0 | 0.0 | 0.00 | 0.00 | 0.00 | 87 | 1027.7 | |
| 20260901221520 | 60 | 0.0 | 2.0 | 0.00 | 0.00 | 0.00 | 86 | 1027.6 | |
| 20260901220108 | 60 | 0.0 | 2.0 | 0.00 | 0.00 | 0.00 | 86 | 1027.6 | |
| 20260901214608 | 60 | 0.0 | 0.0 | 0.00 | 0.00 | 0.00 | 86 | 1027.4 | |
| 20260901213521 | 60 | 135 | 0.0 | 2.0 | 0.00 | 0.00 | 0.00 | 85 | 1027.3 |
| 20260901212056 | 61 | 0.0 | 0.0 | 0.00 | 0.00 | 0.00 | 85 | 1027.4 | |
| 20260901211031 | 61 | 0.0 | 0.0 | 0.00 | 0.00 | 0.00 | 86 | 1027.3 | |
| 20260901205608 | 61 | 0.0 | 0.0 | 0.00 | 0.00 | 0.00 | 85 | 1027.1 | |
| 20260901204108 | 61 | 0.0 | 0.0 | 0.00 | 0.00 | 0.00 | 85 | 1027.1 | |
| 20260901202556 | 61 | 0.0 | 0.0 | 0.00 | 0.00 | 0.00 | 85 | 1027.0 | |
| 20260901201520 | 62 | 0.0 | 0.0 | 0.00 | 0.00 | 0.00 | 83 | 1027.1 | |
| 20260901200107 | 63 | 0.0 | 0.0 | 0.00 | 0.00 | 0.00 | 80 | 1027.1 | |
| 20260901195032 | 63 | 243 | 1.0 | 4.0 | 0.00 | 0.00 | 0.00 | 80 | 1027.0 |
| 20260901193543 | 63 | 276 | 0.0 | 2.0 | 0.00 | 0.00 | 0.00 | 83 | 1026.9 |
| 20260901192532 | 63 | 0.0 | 2.0 | 0.00 | 0.00 | 0.00 | 84 | 1027.0 | |
| 20260901191608 | 63 | 0.0 | 0.0 | 0.00 | 0.00 | 0.00 | 84 | 1026.9 | |
| 20260901190108 | 64 | 0.0 | 0.0 | 0.00 | 0.00 | 0.00 | 82 | 1026.8 |